Weather History for KORE - September, 2013

Change the Weather History Date:

Wednesday, September 18, 2013

  Actual Average Record
Temperature  
Mean Temperature 54 °F -  
Max Temperature 72 °F 70 °F 79 °F (2006)
Min Temperature 37 °F 47 °F 36 °F (2007)
Degree Days  
Heating Degree Days 11    
Growing Degree Days 4 (Base 50)    
Moisture  
Dew Point 42 °F    
Average Humidity 82    
Maximum Humidity 100    
Minimum Humidity 31    
Precipitation  
Precipitation 0.00 in - - ()
Sea Level Pressure  
Sea Level Pressure 30.27 in    
Wind  
Wind Speed 1 mph (SW)    
Max Wind Speed 8 mph    
Max Gust Speed -    
Visibility 6 miles    
Events Fog    
Averages and records for this station are not official NWS values.
T = Trace of Precipitation, MM = Missing Value Source: NWS Daily Summary

Daily Weather History Graph

Daily Weather History Graph

Search for Another Location

Airport or City:

Trip Planner

Search our weather history database for the weather conditions in past years. The results will help you decide how hot, cold, wet, or windy it might be!

Date:

Astronomy

Sep. 18, 2013 Rise Set
Actual Time 6:32 AM EDT 6:53 PM EDT
Civil Twilight 6:04 AM EDT 7:21 PM EDT
Nautical Twilight 5:30 AM EDT 7:54 PM EDT
Astronomical Twilight 4:56 AM EDT 8:28 PM EDT
Moon 6:14 PM EDT (9/18) 5:31 AM EDT (9/18)
Length of Visible Light 13h 17m
Length of Day
12h 20m
Waxing Gibbous, 99% of the Moon is Illuminated
Sep 18
Waxing Gibbous
Sep 19
Full
Sep 26
Last Quarter
Oct 4
New
Oct 11
First Quarter

Hourly Weather History & Observations

Time (EDT) Temp. Dew Point Humidity Pressure Visibility Wind Dir Wind Speed Gust Speed Precip Events Conditions
12:52 AM 39.9 °F 39.0 °F 97% 30.35 in 10.0 mi Calm Calm - N/A   Clear
1:12 AM 39.2 °F 37.4 °F 93% 30.34 in 10.0 mi Calm Calm - N/A   Partly Cloudy
1:36 AM 39.2 °F 37.4 °F 93% 30.34 in 10.0 mi Calm Calm - N/A   Mostly Cloudy
1:45 AM 39.2 °F 37.4 °F 93% 30.34 in 1.8 mi Calm Calm - N/A   Mostly Cloudy
1:52 AM 39.0 °F 37.0 °F 93% 30.35 in 1.5 mi Calm Calm - N/A   Overcast
1:55 AM 39.2 °F 37.4 °F 93% 30.33 in 3.0 mi Calm Calm - N/A   Overcast
2:00 AM 39.2 °F 37.4 °F 93% 30.33 in 1.8 mi Calm Calm - N/A   Overcast
2:02 AM 39.2 °F 37.4 °F 93% 30.33 in 1.0 mi Calm Calm - N/A   Mist
2:09 AM 39.2 °F 37.4 °F 93% 30.34 in 0.2 mi Calm Calm - N/A Fog Fog
2:52 AM 37.9 °F 37.9 °F 100% 30.34 in 0.2 mi Calm Calm - N/A Fog Fog
3:52 AM 37.9 °F 37.9 °F 100% 30.34 in 0.2 mi Calm Calm - N/A Fog Fog
4:52 AM 39.0 °F 39.0 °F 100% 30.33 in 0.2 mi Calm Calm - N/A Fog Fog
5:52 AM 39.0 °F 37.9 °F 96% 30.34 in 0.2 mi Calm Calm - N/A Fog Fog
6:52 AM 39.0 °F 39.0 °F 100% 30.35 in 0.2 mi Calm Calm - N/A Fog Fog
7:52 AM 39.0 °F 39.0 °F 100% 30.35 in 0.2 mi Calm Calm - N/A Fog Fog
8:52 AM 41.0 °F 41.0 °F 100% 30.34 in 0.2 mi Calm Calm - N/A Fog Fog
9:25 AM 44.6 °F 42.8 °F 93% 30.32 in 1.5 mi Calm Calm - N/A   Overcast
9:27 AM 44.6 °F 42.8 °F 93% 30.32 in 3.0 mi Calm Calm - N/A   Overcast
9:52 AM 46.9 °F 45.0 °F 93% 30.33 in 10.0 mi Calm Calm - N/A   Scattered Clouds
10:52 AM 57.9 °F 46.0 °F 65% 30.30 in 10.0 mi Calm Calm - N/A   Clear
11:52 AM 64.0 °F 44.1 °F 48% 30.28 in 10.0 mi Calm Calm - N/A   Clear
12:52 PM 66.9 °F 37.9 °F 34% 30.26 in 10.0 mi West 5.8 mph - N/A   Clear
1:52 PM 70.0 °F 37.9 °F 31% 30.23 in 10.0 mi Variable 6.9 mph - N/A   Clear
2:52 PM 70.0 °F 39.0 °F 32% 30.20 in 10.0 mi SSW 5.8 mph - N/A   Clear
3:52 PM 71.1 °F 41.0 °F 34% 30.19 in 10.0 mi West 4.6 mph - N/A   Clear
4:52 PM 70.0 °F 46.0 °F 42% 30.17 in 10.0 mi SSW 4.6 mph - N/A   Clear
5:52 PM 69.1 °F 48.0 °F 47% 30.17 in 7.0 mi SSW 8.1 mph - N/A   Clear
6:52 PM 61.0 °F 52.0 °F 72% 30.17 in 6.0 mi SSW 4.6 mph - N/A   Haze
7:52 PM 55.9 °F 52.0 °F 87% 30.17 in 10.0 mi Calm Calm - N/A   Clear
8:52 PM 52.0 °F 50.0 °F 93% 30.18 in 10.0 mi Calm Calm - N/A   Clear
9:52 PM 51.1 °F 48.0 °F 89% 30.19 in 10.0 mi Calm Calm - N/A   Clear
10:52 PM 48.0 °F 46.0 °F 93% 30.19 in 10.0 mi Calm Calm - N/A   Clear
11:04 PM 48.2 °F 46.4 °F 93% 30.18 in 4.0 mi Calm Calm - N/A   Scattered Clouds
11:11 PM 48.2 °F 46.4 °F 93% 30.17 in 2.5 mi Calm Calm - N/A   Mostly Cloudy
11:18 PM 48.2 °F 46.4 °F 93% 30.18 in 5.0 mi Calm Calm - N/A   Mostly Cloudy
11:28 PM 46.4 °F 44.6 °F 93% 30.17 in 5.0 mi Calm Calm - N/A   Scattered Clouds
11:52 PM 46.9 °F 45.0 °F 93% 30.18 in 7.0 mi Calm Calm - N/A   Clear